This demonstration page uses our WeatherBlox Daily Observations layout. Learn more.

Hourly Observations for December 27, 2016

Temp ( °F °C ) Dew Point ( °F °C ) Humidity (%) Winds ( mph kmh ) Pressure ( in mb ) Visibility ( mi km ) Precip ( " mm )
12:54 am 00:54 Clear 29 -1.7 21 -6.1 72 72 WSW 6 9 30.32 1027 10 16.0934 0 0
1:54 am 01:54 Clear 29 -1.7 21 -6.1 72 72 W 3 6 30.32 1027 10 16.0934 0 0
2:54 am 02:54 Clear 26 -3.3 19 -7.2 75 75 Calm 30.33 1027 10 16.0934 0 0
3:54 am 03:54 Clear 24 -4.4 19 -7.2 81 81 SW 3 6 30.32 1027 10 16.0934 0 0
4:54 am 04:54 Clear 25 -3.9 20 -6.7 81 81 Calm 30.3 1026 10 16.0934 0 0
5:54 am 05:54 Clear 22 -5.6 18 -7.8 85 85 S 3 6 30.3 1026 10 16.0934 0 0
6:54 am 06:54 Clear 21 -6.1 17 -8.3 85 85 SSW 3 6 30.31 1027 10 16.0934 0 0
7:54 am 07:54 Sunny 21 -6.1 17 -8.3 85 85 SSE 6 9 30.31 1026 10 16.0934 0 0
8:54 am 08:54 Sunny 25 -3.9 21 -6.1 85 85 Calm 30.3 1026 10 16.0934 0 0
9:54 am 09:54 Sunny 31 -0.6 24 -4.4 76 76 S 8 13 30.28 1025 10 16.0934 0 0
10:54 am 10:54 Sunny 40 4.4 25 -3.9 55 55 SW 12 19 30.26 1025 10 16.0934 0 0
11:54 am 11:54 Sunny 45 7.2 24 -4.4 44 44 WSW 18 30 30.22 1024 10 16.0934 0 0
12:54 pm 12:54 Sunny 47 8.3 24 -4.4 41 41 SW 17 28 30.19 1022 10 16.0934 0 0
1:54 pm 13:54 Sunny 48 8.9 23 -5 37 37 SW 18 30 30.14 1021 10 16.0934 0 0
2:54 pm 14:54 Sunny 47 8.3 25 -3.9 42 42 SSW 18 30 30.13 1020 10 16.0934 0 0
3:54 pm 15:54 Sunny 47 8.3 25 -3.9 42 42 SW 12 19 30.12 1020 10 16.0934 0 0
4:54 pm 16:54 Sunny 43 6.1 25 -3.9 49 49 SSW 9 15 30.11 1020 10 16.0934 0 0
5:54 pm 17:54 Clear 33 0.6 24 -4.4 70 70 S 10 17 30.09 1019 10 16.0934 0 0
6:54 pm 18:54 Clear 31 -0.6 24 -4.4 76 76 S 9 15 30.07 1018 10 16.0934 0 0
7:54 pm 19:54 Clear 31 -0.6 24 -4.4 76 76 SSE 8 13 30.07 1018 10 16.0934 0 0
8:54 pm 20:54 Clear 31 -0.6 24 -4.4 76 76 SSW 7 11 30.06 1018 10 16.0934 0 0
9:54 pm 21:54 Clear 34 1.1 26 -3.3 73 73 S 13 20 30.01 1016 10 16.0934 0 0
10:54 pm 22:54 Clear 36 2.2 26 -3.3 67 67 SSW 13 20 30 1016 10 16.0934 0 0
11:54 pm 23:54 Clear 36 2.2 26 -3.3 67 67 S 13 20 29.96 1015 10 16.0934 0 0

Powered by AerisWeather